Temp
21 21 21 21 20 18 19 22 24 25 27 28 30 29 28 27 26 23 28 28 28 28 28 26 26 25 24 24 24 23 23 22 22 21 21 21 20 19 19 18 18 17 17 16 16 16 16 16 16
21 21 21 21 19 19 20 23 25 27 28 30 30 30 27 26 28 28 28 27 28 28 27 27 26 25 25 24 24 24 23 22 22 21 21 21 20 19 19 18 18 17 17 16 16 16 16 16 16
21 21 21 18 18 19 21 25 26 26 29 29 29 30 29 27 27 28 28 28 27 27 27 27 26 25 25 24 24 24 23 22 22 21 21 21 20 20 20 19 18 17 17 16 16 15 15 15 15
20 20 20 19 19 22 23 25 26 26 28 30 30 29 29 28 27 27 28 27 27 27 27 27 26 26 25 25 24 24 23 23 22 21 21 21 21 20 20 19 18 17 17 16 15 15 15 14 14
20 20 18 18 20 23 25 26 27 26 27 28 30 28 27 28 28 28 28 28 28 27 27 27 26 26 25 25 24 23 23 23 22 22 21 21 21 20 20 19 19 18 17 15 15 14 14 14 14
20 19 17 18 21 24 25 27 27 25 26 29 27 27 27 27 28 28 28 28 28 28 27 27 26 26 26 25 24 23 23 23 22 22 21 20 20 20 20 19 19 18 17 16 15 14 14 14 14
18 16 17 19 21 23 25 27 28 28 28 29 29 26 27 27 28 29 29 28 28 28 27 27 26 26 25 25 24 24 23 23 23 22 21 21 20 19 19 18 18 18 16 15 15 14 14 14 14
20 16 18 19 21 21 26 27 28 28 29 30 30 26 26 28 28 28 28 28 28 27 27 26 26 26 25 25 24 24 23 23 23 22 21 21 20 19 18 18 18 17 16 15 15 14 14 14 14
20 16 16 19 21 22 25 25 28 28 28 29 29 28 28 29 28 28 27 26 27 26 26 26 26 26 26 25 24 23 23 22 22 22 21 20 20 19 18 18 18 17 16 15 14 14 14 14 15
18 16 17 20 22 22 23 25 26 26 27 28 29 29 29 29 28 28 28 28 28 27 27 27 26 26 25 24 24 23 23 22 22 22 21 21 20 19 18 18 17 16 15 15 14 14 14 14 14
19 19 20 21 22 23 23 24 25 25 24 27 28 28 29 29 29 29 28 29 29 28 28 27 27 26 25 25 24 24 23 22 22 21 21 21 20 19 18 18 17 16 15 15 14 14 14 14 13
18 20 21 21 22 22 22 24 24 24 25 26 27 28 28 28 28 28 28 28 28 28 28 28 28 26 25 25 24 24 23 23 22 22 21 20 20 19 18 18 17 16 15 14 14 14 13 14 14
18 20 21 22 22 22 23 23 23 24 25 26 27 28 28 28 28 28 28 28 28 28 28 28 28 27 26 25 24 24 24 23 23 22 21 20 20 19 18 17 17 16 14 14 14 14 13 13 13
19 19 20 21 22 22 22 23 24 24 25 26 26 27 28 28 28 28 28 28 28 28 28 28 28 27 26 26 25 25 24 23 22 22 21 20 20 18 17 17 16 15 14 14 13 13 13 13 13
18 17 19 20 21 21 23 22 23 24 25 25 26 27 27 28 28 28 28 28 28 28 28 28 27 27 27 26 26 25 24 23 22 21 20 19 19 18 17 17 15 15 14 13 13 13 13 13 13
17 17 17 20 20 21 22 21 24 25 25 25 27 27 27 27 28 28 28 28 28 28 28 28 27 27 26 26 26 25 24 23 22 20 19 18 18 17 17 16 15 15 14 14 13 13 13 12 12
14 16 16 18 20 21 21 21 23 25 25 25 25 26 26 27 27 28 28 28 28 28 28 27 27 27 27 26 26 25 24 22 21 20 19 18 17 16 16 15 15 15 14 13 13 13 13 12 12
14 15 17 17 19 21 21 21 22 24 24 24 25 25 25 25 26 28 28 28 28 28 28 27 27 27 26 26 25 24 22 20 19 19 18 18 16 16 16 15 15 15 13 13 13 13 13 13 13
16 16 17 18 19 20 20 21 22 23 23 22 24 24 25 25 27 28 28 27 27 28 27 27 27 26 26 26 25 22 20 19 18 18 17 16 16 16 15 15 15 14 13 13 13 12 12 12 12
15 15 15 17 19 19 20 20 22 23 23 23 24 24 24 26 28 27 27 27 27 28 27 27 27 27 26 25 24 21 19 18 18 17 16 16 16 15 15 15 14 14 13 13 13 12 12 12 12
15 15 15 16 18 19 19 19 19 21 21 23 24 25 26 27 27 27 27 28 28 27 27 26 26 26 25 24 22 20 18 18 17 17 16 16 16 15 15 15 14 14 13 13 12 12 12 12 12
14 16 17 17 16 16 19 17 19 20 21 21 22 24 26 27 27 27 28 27 27 27 25 25 25 24 22 22 21 19 19 18 18 17 17 16 16 15 15 15 14 13 13 13 12 12 12 12 12
14 17 17 17 16 16 17 15 20 19 20 21 21 24 26 27 27 27 28 27 25 25 25 24 22 22 20 19 19 18 18 17 17 17 16 16 16 15 15 14 13 13 13 13 12 12 12 12 12
16 16 16 16 14 14 17 16 17 19 20 20 20 24 26 26 27 27 27 26 23 23 23 21 20 19 18 18 17 17 17 16 17 16 16 16 15 15 14 13 13 13 13 13 13 12 12 12 12
14 13 12 11 12 14 17 16 18 18 20 21 22 23 25 25 26 26 25 23 21 21 20 20 18 17 17 16 16 16 16 16 16 16 16 15 15 15 14 13 13 13 13 13 13 12 12 12 12
12 11 10 11 11 14 18 16 16 20 22 24 24 24 24 25 23 22 20 20 20 19 18 17 17 16 16 16 16 16 16 16 16 15 15 15 15 14 14 13 13 13 13 13 13 13 12 12 12
12 12 14 13 15 14 15 17 18 21 21 22 22 21 22 20 19 19 19 19 18 18 17 16 16 16 16 16 16 16 15 15 15 15 15 14 14 13 13 13 13 13 13 13 13 13 13 13 12
12 14 13 11 12 12 15 16 17 20 21 21 20 18 18 17 18 18 18 18 18 16 16 16 15 15 16 16 15 15 15 15 15 14 14 14 14 13 13 13 13 13 13 13 13 13 13 13 13
11 12 13 12 12 14 13 15 17 18 20 21 18 18 17 18 18 18 18 17 16 16 16 15 15 15 15 15 15 15 14 14 14 14 14 13 13 13 13 13 13 13 13 13 13 13 13 12 12
11 11 10 10 12 14 14 16 21 20 20 20 18 18 18 18 18 18 17 16 16 15 15 15 15 15 15 15 15 15 15 15 14 14 13 13 13 13 13 13 13 13 13 13 13 13 12 12 12
Height
1516 1518 1518 1518 1527 1528 1530 1516 1493 1494 1488 1484 1481 1479 1481 1485 1491 1508 1492 1495 1496 1497 1499 1502 1505 1507 1509 1511 1512 1512 1514 1515 1515 1515 1515 1514 1515 1515 1514 1514 1515 1515 1516 1516 1516 1516 1517 1517 1516
1515 1517 1519 1517 1529 1535 1526 1504 1499 1489 1483 1478 1478 1482 1482 1488 1486 1488 1492 1495 1498 1498 1498 1501 1503 1505 1507 1509 1510 1511 1512 1513 1513 1514 1514 1513 1513 1513 1513 1513 1513 1513 1514 1514 1515 1515 1515 1516 1515
1516 1516 1517 1518 1525 1527 1518 1497 1491 1489 1483 1480 1481 1481 1487 1488 1487 1488 1491 1494 1498 1498 1498 1499 1500 1502 1504 1506 1506 1508 1509 1511 1511 1512 1513 1512 1512 1512 1512 1511 1511 1512 1512 1512 1513 1513 1514 1514 1514
1515 1518 1517 1521 1520 1504 1500 1488 1494 1491 1483 1478 1480 1485 1486 1487 1489 1490 1493 1494 1496 1496 1496 1497 1497 1499 1500 1502 1503 1503 1504 1507 1509 1510 1510 1511 1511 1511 1511 1510 1510 1510 1510 1510 1511 1511 1512 1512 1512
1515 1516 1521 1522 1512 1496 1490 1493 1487 1487 1481 1480 1479 1483 1486 1486 1487 1489 1490 1491 1493 1493 1493 1495 1496 1497 1498 1499 1500 1501 1501 1502 1504 1506 1507 1508 1509 1509 1509 1509 1508 1508 1508 1508 1509 1509 1510 1510 1510
1514 1515 1524 1522 1507 1489 1488 1489 1488 1485 1484 1479 1483 1485 1485 1488 1486 1486 1487 1488 1490 1490 1490 1491 1494 1494 1494 1496 1496 1498 1499 1499 1500 1502 1503 1505 1507 1507 1507 1507 1507 1506 1506 1507 1507 1507 1507 1507 1507
1511 1518 1520 1512 1502 1494 1483 1485 1487 1485 1485 1481 1479 1487 1486 1487 1486 1485 1485 1486 1487 1489 1489 1490 1491 1491 1492 1493 1493 1493 1495 1495 1496 1498 1499 1501 1503 1505 1505 1506 1506 1505 1505 1504 1505 1505 1504 1503 1503
1510 1511 1514 1507 1504 1494 1483 1482 1485 1484 1485 1482 1481 1486 1489 1487 1487 1486 1485 1484 1483 1484 1486 1487 1487 1488 1487 1488 1489 1490 1491 1492 1491 1492 1495 1498 1500 1502 1503 1504 1504 1504 1503 1503 1503 1502 1500 1499 1499
1504 1514 1517 1505 1495 1485 1483 1492 1480 1487 1483 1484 1482 1482 1484 1483 1485 1486 1485 1482 1484 1482 1482 1482 1483 1484 1484 1484 1485 1488 1489 1490 1490 1489 1491 1494 1495 1498 1500 1502 1502 1502 1502 1501 1500 1499 1498 1497 1497
1497 1505 1503 1489 1487 1484 1480 1489 1491 1486 1487 1480 1478 1477 1478 1478 1477 1480 1481 1481 1474 1476 1476 1477 1479 1479 1480 1480 1481 1482 1485 1486 1486 1486 1486 1488 1491 1494 1497 1499 1500 1501 1500 1500 1498 1498 1497 1497 1496
1488 1485 1486 1483 1485 1485 1482 1483 1485 1484 1482 1480 1477 1475 1475 1476 1473 1474 1474 1474 1474 1471 1469 1471 1472 1474 1475 1476 1477 1478 1479 1480 1481 1481 1483 1484 1488 1491 1493 1495 1497 1498 1498 1498 1497 1496 1496 1495 1494
1488 1478 1481 1482 1481 1482 1478 1479 1477 1480 1476 1477 1474 1472 1472 1471 1471 1472 1472 1471 1469 1467 1465 1466 1467 1467 1469 1469 1472 1473 1474 1475 1476 1477 1479 1482 1484 1487 1490 1492 1494 1494 1495 1495 1494 1494 1493 1493 1493
1477 1474 1480 1480 1479 1476 1476 1473 1472 1465 1467 1469 1467 1467 1466 1465 1464 1465 1465 1465 1464 1462 1460 1460 1460 1461 1462 1463 1466 1467 1468 1470 1471 1473 1476 1479 1481 1483 1487 1490 1491 1491 1493 1492 1491 1491 1491 1491 1491
1470 1474 1474 1475 1473 1472 1473 1465 1466 1461 1462 1458 1460 1460 1459 1458 1459 1459 1459 1458 1458 1456 1456 1453 1454 1455 1456 1457 1459 1460 1462 1464 1466 1469 1473 1475 1478 1480 1483 1486 1487 1488 1489 1490 1489 1488 1488 1487 1488
1472 1476 1471 1465 1468 1467 1470 1457 1453 1458 1457 1456 1455 1454 1453 1453 1452 1451 1452 1451 1450 1449 1449 1448 1448 1449 1450 1451 1452 1454 1456 1459 1462 1466 1469 1471 1474 1476 1479 1482 1483 1485 1486 1486 1485 1485 1484 1484 1484
1471 1473 1472 1453 1463 1464 1472 1438 1446 1452 1452 1448 1448 1448 1446 1444 1443 1444 1443 1443 1442 1442 1441 1442 1441 1442 1445 1446 1446 1448 1450 1454 1457 1462 1465 1467 1469 1472 1476 1478 1480 1481 1482 1482 1481 1481 1481 1480 1480
1472 1468 1464 1452 1458 1462 1463 1424 1445 1448 1447 1444 1442 1440 1438 1436 1434 1435 1434 1434 1435 1435 1436 1437 1438 1439 1439 1439 1440 1441 1444 1448 1453 1458 1461 1464 1466 1469 1472 1474 1476 1477 1478 1478 1478 1477 1475 1475 1475
1467 1461 1449 1453 1456 1456 1457 1423 1439 1441 1441 1437 1435 1432 1431 1428 1426 1425 1425 1425 1426 1428 1429 1431 1431 1432 1433 1434 1434 1437 1441 1445 1450 1454 1458 1461 1464 1467 1470 1472 1473 1473 1474 1474 1473 1472 1470 1469 1470
1452 1454 1452 1448 1448 1453 1442 1434 1432 1432 1431 1429 1426 1423 1419 1417 1417 1417 1416 1417 1420 1420 1422 1425 1425 1427 1428 1428 1429 1432 1434 1440 1445 1449 1453 1459 1461 1464 1467 1469 1469 1469 1469 1469 1468 1467 1466 1465 1466
1456 1456 1452 1452 1445 1444 1442 1431 1424 1422 1421 1422 1418 1415 1412 1411 1409 1409 1410 1411 1413 1414 1415 1416 1418 1419 1420 1422 1424 1428 1432 1438 1443 1447 1451 1454 1458 1461 1464 1465 1465 1466 1466 1465 1464 1462 1462 1462 1463
1449 1453 1455 1457 1448 1437 1445 1431 1431 1413 1411 1413 1411 1407 1405 1402 1400 1403 1404 1404 1403 1405 1408 1409 1412 1414 1414 1415 1421 1428 1435 1439 1443 1445 1447 1452 1455 1459 1461 1462 1463 1462 1461 1461 1459 1458 1458 1458 1459
1450 1446 1447 1451 1456 1458 1443 1446 1422 1409 1403 1404 1402 1401 1396 1394 1394 1395 1395 1395 1396 1398 1401 1404 1406 1408 1412 1413 1418 1424 1429 1435 1440 1444 1448 1451 1454 1457 1459 1460 1459 1459 1457 1457 1456 1455 1456 1456 1457
1440 1440 1442 1444 1449 1453 1446 1458 1382 1403 1401 1396 1392 1389 1388 1388 1388 1388 1387 1387 1388 1391 1394 1399 1402 1406 1411 1413 1418 1425 1431 1435 1440 1443 1447 1450 1453 1455 1456 1456 1455 1455 1454 1453 1453 1452 1453 1453 1454
1435 1436 1438 1442 1450 1458 1434 1443 1401 1400 1393 1388 1381 1381 1382 1382 1382 1381 1379 1379 1382 1385 1390 1396 1401 1405 1410 1414 1420 1425 1430 1434 1438 1442 1445 1448 1451 1453 1453 1452 1452 1452 1452 1451 1450 1450 1451 1451 1451
1434 1442 1459 1464 1461 1433 1420 1431 1396 1384 1379 1379 1378 1377 1375 1377 1376 1374 1372 1374 1379 1383 1388 1395 1400 1404 1409 1415 1421 1426 1430 1433 1437 1441 1444 1447 1449 1450 1449 1449 1449 1450 1450 1449 1449 1449 1449 1450 1450
1432 1440 1452 1455 1454 1434 1418 1417 1399 1374 1373 1369 1371 1370 1372 1373 1371 1372 1374 1376 1380 1385 1390 1396 1400 1404 1411 1417 1422 1426 1430 1433 1437 1440 1443 1446 1447 1447 1447 1447 1448 1448 1448 1448 1447 1448 1449 1449 1449
1428 1432 1426 1437 1424 1436 1416 1394 1378 1367 1363 1361 1364 1367 1368 1369 1370 1372 1376 1380 1383 1388 1392 1397 1402 1407 1413 1419 1423 1426 1430 1434 1437 1440 1442 1444 1445 1445 1445 1446 1447 1447 1447 1446 1445 1446 1447 1448 1448
1423 1421 1433 1436 1443 1444 1416 1403 1392 1367 1362 1359 1359 1362 1366 1368 1371 1374 1378 1382 1386 1391 1395 1400 1405 1409 1415 1420 1424 1427 1430 1434 1437 1439 1440 1442 1442 1444 1445 1446 1446 1446 1446 1445 1444 1444 1445 1446 1446
1425 1421 1420 1423 1425 1423 1427 1406 1365 1366 1358 1355 1353 1354 1360 1366 1370 1374 1379 1385 1389 1393 1397 1402 1407 1411 1416 1421 1425 1428 1430 1434 1436 1438 1439 1440 1442 1444 1445 1445 1446 1445 1444 1444 1443 1442 1443 1444 1445
1420 1423 1427 1433 1425 1410 1410 1390 1356 1356 1354 1346 1347 1352 1359 1366 1370 1376 1382 1386 1391 1395 1400 1405 1409 1414 1418 1422 1425 1428 1431 1433 1435 1437 1438 1440 1442 1444 1445 1445 1445 1445 1444 1443 1441 1441 1441 1442 1442
Wind_Speed
1 3 6 3 2 3 3 6 5 6 8 16 10 8 7 5 5 4 19 20 15 13 19 21 20 17 14 12 11 10 10 8 7 6 5 5 4 4 3 3 1 1 2 3 3 4 5 6 6
5 7 4 1 3 1 4 6 7 2 4 17 21 11 8 3 15 17 20 21 14 12 19 18 20 19 16 15 14 12 12 11 8 6 4 3 2 3 3 3 2 1 2 2 3 4 5 5 6
8 7 3 3 3 5 4 5 5 6 7 12 5 12 5 9 16 23 17 18 16 13 12 14 19 20 19 18 16 16 15 13 11 9 5 3 1 2 4 5 3 2 2 3 4 4 5 6 7
8 4 2 1 8 7 5 13 3 5 4 3 9 2 8 12 18 15 16 14 10 10 11 13 20 21 21 21 20 20 19 17 15 11 8 5 2 1 3 4 4 4 4 4 5 7 7 8 8
9 2 1 3 6 6 11 13 16 6 4 6 14 6 5 16 16 15 10 7 4 9 10 15 22 22 23 24 23 23 21 20 17 15 12 8 6 3 3 4 4 5 5 5 7 8 9 13 12
3 2 1 5 7 7 5 12 19 7 4 15 9 3 8 17 13 8 7 6 5 13 13 16 20 27 25 27 26 26 25 22 20 18 16 13 10 7 5 5 6 5 5 6 8 10 13 15 16
5 3 4 4 5 6 0 13 7 5 5 4 11 6 10 18 8 5 7 10 8 14 17 20 22 26 31 29 29 29 28 25 23 21 20 17 14 12 8 7 8 6 5 4 7 9 13 14 15
5 4 3 5 5 7 5 19 16 14 10 10 8 6 7 16 14 12 11 15 9 18 22 22 25 27 34 34 32 31 30 29 26 25 23 20 18 15 12 10 9 8 6 5 5 7 11 12 14
14 0 5 6 6 7 14 8 40 17 17 8 2 10 10 13 9 17 18 18 14 20 20 25 27 30 32 38 34 34 33 31 29 27 27 24 23 19 15 13 11 8 6 5 6 8 8 8 10
8 7 9 9 5 5 8 7 26 27 20 19 20 8 18 16 4 12 14 15 11 10 16 19 24 32 34 38 39 39 37 36 35 33 31 30 25 21 18 16 14 9 7 8 8 7 7 7 8
7 14 13 17 19 20 17 18 16 23 16 19 7 21 25 19 20 25 23 23 20 19 20 19 19 29 35 39 39 41 40 40 39 38 35 32 28 24 21 18 16 11 10 10 10 10 9 7 6
14 20 22 23 27 24 17 26 21 23 28 28 30 29 27 19 16 20 24 23 22 21 24 23 23 24 33 39 38 39 42 43 41 41 39 34 31 27 23 20 18 13 13 12 11 12 10 10 8
20 19 23 25 28 32 31 27 25 33 36 34 33 31 25 29 30 31 32 30 28 25 24 27 27 21 25 33 37 39 40 41 40 41 40 36 32 28 23 20 18 15 15 15 14 15 14 14 13
5 9 19 28 30 32 22 26 30 35 37 39 35 36 38 38 36 35 34 31 33 31 30 28 27 21 21 26 33 39 41 39 38 37 37 33 28 27 24 19 16 18 18 17 16 18 18 17 16
21 10 14 22 18 19 26 26 28 34 38 34 35 38 39 39 33 35 40 37 34 31 34 30 26 21 21 22 25 33 42 40 36 30 27 25 21 19 18 16 17 18 17 18 18 19 20 21 22
3 4 17 21 18 15 12 35 20 26 28 33 37 40 43 45 45 48 45 41 38 32 25 30 29 22 21 22 26 30 39 40 34 28 26 24 20 19 17 17 16 16 21 23 21 18 19 22 25
7 17 20 26 6 4 11 39 15 29 31 27 28 34 38 46 46 47 45 42 40 27 22 28 25 19 21 22 26 31 38 38 32 27 25 24 21 19 14 17 13 16 21 20 19 20 21 21 23
9 19 19 16 6 13 18 36 21 29 30 33 37 42 40 43 45 48 45 41 41 27 23 31 22 18 21 22 29 34 37 33 28 25 25 22 20 17 16 15 15 17 17 20 21 20 19 20 19
10 11 10 5 10 11 22 24 21 22 24 20 27 32 39 43 43 39 38 36 27 23 19 25 23 19 21 28 33 35 37 31 27 24 24 22 16 16 15 16 15 16 19 21 18 18 18 18 17
14 16 19 6 9 15 18 28 24 23 23 28 33 34 36 41 40 35 25 23 26 27 26 26 29 24 25 31 33 38 35 28 24 24 21 14 17 18 17 15 14 17 20 19 18 17 18 17 14
16 19 12 8 12 22 9 19 8 15 14 21 27 36 33 29 34 36 30 26 30 32 28 23 24 26 30 30 32 34 33 25 22 21 19 15 14 15 14 15 17 17 19 18 16 13 12 10 12
19 12 13 16 13 13 8 19 22 14 22 16 20 28 33 37 39 39 37 37 35 28 20 21 22 24 28 27 28 30 34 31 26 20 16 17 16 16 17 18 16 15 15 12 9 8 10 11 12
19 10 16 13 8 15 16 6 25 10 16 17 15 30 31 32 36 37 32 35 30 21 21 21 20 20 24 20 21 23 25 25 21 17 19 19 20 19 17 15 13 12 9 8 7 8 8 10 12
6 9 15 12 2 8 14 11 9 14 15 8 9 21 31 33 30 34 35 25 23 24 21 19 18 21 19 18 18 20 22 21 20 19 20 19 16 14 14 14 13 9 6 5 5 6 5 6 8
4 1 3 2 5 16 12 10 21 9 8 15 16 23 34 32 26 23 17 22 28 26 22 20 21 22 21 21 23 21 21 19 18 18 17 15 12 11 12 13 10 7 5 4 5 5 4 5 5
7 9 5 7 4 4 12 9 7 16 20 37 34 34 25 16 15 18 24 29 27 24 22 23 24 26 25 24 22 21 21 15 17 16 13 9 10 10 11 8 7 6 5 6 6 4 5 4 5
4 10 5 6 15 1 5 8 9 19 24 21 20 12 16 20 23 27 27 26 24 23 24 26 26 28 26 25 23 21 16 16 14 12 9 7 8 9 6 5 3 2 2 5 6 6 6 6 5
7 5 5 3 7 6 5 6 8 7 11 12 12 11 21 25 27 28 27 24 22 22 24 26 27 28 26 23 21 16 12 11 10 8 8 7 7 8 7 5 4 2 2 4 6 6 7 6 7
3 1 3 3 4 8 3 6 11 11 13 18 8 21 32 32 32 30 26 23 22 24 27 28 28 26 23 19 15 14 12 7 5 3 6 7 9 8 9 6 4 2 2 4 4 6 6 8 9
4 6 5 3 6 5 2 12 17 8 12 12 14 25 30 34 33 29 27 26 27 28 26 26 27 24 21 18 16 14 9 6 4 3 5 11 11 11 6 2 2 4 6 4 5 7 9 9 8
Wind_Direction
190 223 184 174 73 78 257 261 282 293 342 356 10 86 128 109 157 204 150 162 150 157 174 181 186 185 184 184 178 169 161 158 151 140 131 115 101 94 78 57 10 288 255 259 262 265 265 263 266
190 178 184 109 111 167 263 234 250 243 336 14 4 74 24 50 123 147 163 170 168 175 175 184 189 191 191 191 188 183 180 176 167 168 159 124 85 60 44 33 24 333 292 259 247 250 258 266 270
194 179 151 142 192 200 209 238 203 353 54 35 27 296 107 124 132 144 166 173 184 180 176 195 197 196 196 196 193 193 191 186 184 188 181 159 111 30 12 359 1 324 285 268 262 262 255 267 274
181 202 230 143 238 262 261 269 315 275 254 210 30 323 105 158 155 162 155 177 187 195 193 211 207 203 203 203 202 200 198 197 197 198 197 187 198 356 352 340 335 311 288 263 276 276 273 270 268
176 185 147 245 253 251 258 294 300 246 236 195 158 176 133 163 150 148 140 153 238 212 218 220 216 210 211 210 208 207 204 203 204 206 206 208 225 250 311 328 320 309 301 278 266 264 264 263 269
181 264 153 225 246 270 251 302 270 216 210 274 217 112 150 159 144 136 182 204 241 237 233 224 226 221 221 216 214 213 210 210 211 213 213 217 228 245 265 303 310 306 287 268 270 275 272 265 263
150 108 234 249 261 280 11 303 329 234 208 260 132 136 172 173 178 207 227 212 232 241 242 226 227 227 222 222 220 217 216 215 217 221 220 223 229 242 248 275 297 296 288 294 292 287 282 275 267
210 125 256 235 230 262 42 334 328 15 305 80 117 157 181 195 205 219 219 227 229 230 231 236 232 230 225 223 224 222 223 221 221 225 226 228 233 240 248 259 280 280 279 289 317 329 309 277 269
199 171 232 237 213 248 75 59 277 310 332 315 333 144 174 329 269 239 229 228 230 222 229 233 238 236 235 224 226 225 226 225 226 228 230 230 235 240 247 258 271 273 285 286 316 334 336 304 283
187 189 229 230 266 296 335 141 256 298 304 307 297 256 331 323 262 209 224 229 269 247 245 245 242 239 236 230 226 226 225 226 229 230 232 232 236 240 247 257 264 264 271 280 295 304 321 320 314
220 228 212 251 266 288 284 282 247 283 282 278 279 310 310 309 309 290 280 281 283 281 275 265 250 238 239 238 229 229 228 230 232 234 233 235 237 239 244 254 256 255 261 275 278 286 284 296 299
258 247 239 249 262 272 263 273 275 260 268 279 284 292 294 292 295 287 263 266 271 264 267 268 268 233 233 238 234 235 232 232 234 238 235 235 237 240 243 252 256 259 261 260 269 274 268 271 269
253 255 253 253 253 256 264 265 264 275 278 281 286 287 283 297 297 295 288 284 276 261 260 263 263 246 238 236 236 236 239 235 236 241 237 237 240 243 244 253 253 260 261 255 277 279 267 262 268
271 281 262 254 254 259 260 267 268 270 277 282 285 283 291 294 290 288 278 280 281 264 267 263 248 251 248 247 242 242 239 239 238 241 240 241 246 247 244 245 252 253 258 258 271 281 266 263 263
263 285 282 261 252 253 260 261 252 260 269 272 276 283 285 285 280 280 284 283 287 278 273 251 239 245 247 253 256 248 239 240 237 235 229 231 237 232 225 239 244 252 254 264 264 271 262 259 265
262 248 247 248 244 248 269 262 257 262 262 259 268 275 276 274 274 280 279 274 276 282 273 241 237 246 247 255 253 254 241 240 240 235 230 226 224 220 226 239 250 255 255 261 268 269 256 260 259
207 237 234 250 222 228 212 263 255 255 256 264 269 273 272 275 280 281 279 273 270 264 250 234 244 249 249 247 252 252 242 237 236 233 227 225 223 211 223 235 252 265 258 262 273 270 269 268 260
211 219 233 254 210 216 235 261 257 264 268 269 271 270 272 271 271 279 280 272 259 252 264 244 244 245 241 256 250 243 233 231 229 225 219 224 212 210 231 235 260 276 258 272 275 277 275 273 261
269 262 253 244 199 218 241 262 258 251 253 258 264 269 264 265 269 271 277 263 256 250 248 242 254 248 249 248 237 225 221 215 209 210 208 197 212 221 220 237 270 266 271 281 285 283 276 267 257
245 265 264 301 276 216 243 251 263 265 262 258 261 263 261 264 279 279 271 259 247 253 254 252 250 249 244 240 227 217 207 203 200 192 209 216 206 210 224 264 270 273 278 279 281 271 267 262 247
242 234 261 265 296 292 300 281 247 261 257 258 266 272 268 273 280 280 271 254 248 247 259 246 246 251 236 223 216 208 205 200 195 207 220 228 213 226 252 256 268 279 277 276 273 263 254 254 238
249 251 241 248 261 266 217 280 259 262 267 262 247 257 271 275 275 276 272 262 257 252 234 239 243 231 219 212 208 202 200 204 212 219 231 203 221 236 248 259 268 281 276 268 260 254 244 237 223
250 255 231 252 238 248 248 273 267 208 250 252 253 256 259 277 282 281 279 275 266 230 227 220 212 209 203 197 195 193 197 202 200 203 205 213 230 237 254 266 271 275 267 259 263 257 251 246 239
290 231 242 260 224 254 228 220 275 237 240 245 241 270 274 271 276 285 279 269 212 193 196 197 194 185 181 177 178 187 185 184 193 194 195 209 221 237 261 269 268 254 256 267 268 253 244 248 246
241 143 233 230 197 234 183 218 240 270 249 242 249 251 262 271 274 262 227 187 176 176 178 179 180 166 163 165 171 177 177 177 187 197 199 204 222 252 263 264 242 239 256 253 227 222 213 224 222
187 171 183 193 200 278 240 241 240 236 257 257 255 260 268 248 215 191 174 168 168 164 164 167 168 156 159 167 169 175 184 186 178 185 197 223 255 258 262 223 214 238 248 244 230 227 222 243 234
318 216 194 276 277 301 233 268 275 258 266 262 252 208 207 181 174 169 165 163 157 159 160 164 165 159 160 166 172 173 168 173 182 189 202 232 249 240 186 183 197 192 229 243 252 247 236 228 223
191 258 163 215 217 240 255 252 236 252 284 277 251 174 168 161 159 158 159 156 156 158 157 161 164 160 162 165 171 169 174 172 184 197 221 237 212 165 154 135 128 142 288 286 265 262 253 239 210
351 226 198 172 195 219 299 255 244 250 267 279 198 167 158 160 160 158 155 155 153 154 153 157 162 162 163 166 165 154 144 166 186 189 200 187 174 152 138 126 115 21 351 303 276 238 225 206 209
244 253 172 205 250 249 210 265 260 271 282 269 163 157 157 161 160 157 155 152 152 152 153 159 163 162 160 156 148 144 156 202 195 185 181 178 161 153 148 141 302 325 321 317 301 249 232 210 212